[Iaude] MPEC B118: 2024 BU2 [a=0.78,e=0.36,i=6.8,H=23.2]
    mpec at marsden.cfa.harvard.edu 
    mpec at marsden.cfa.harvard.edu
       
    Tue Jan 23 18:28:23 EST 2024
    
    
  
M.P.E.C. 2024-B118                             Issued 2024 January 23, 23:26 UT
     The Minor Planet Electronic Circulars contain information on unusual
         minor planets, routine data on comets and natural satellites,
         and occasional editorial announcements.  They are published
    on behalf of Division F of the International Astronomical Union by the
          Minor Planet Center, Smithsonian Astrophysical Observatory,
                          Cambridge, MA 02138, U.S.A.
			  
             Prepared using the Tamkin Foundation Computer Network
                              MPC at CFA.HARVARD.EDU
            URL https://www.minorplanetcenter.net/    ISSN 1523-6714
                                    2024 BU2                                    
Observations:
     K24B02U* C2024 01 22.56655612 22 04.160+53 05 37.52         19.88iXEB118F51
     K24B02U  C2024 01 22.57767612 21 57.595+53 07 14.37         19.73iXEB118F51
     K24B02U  C2024 01 22.58875012 21 50.978+53 08 50.45         20.08iXEB118F51
     K24B02U  C2024 01 22.59982412 21 44.357+53 10 26.31         20.04iXEB118F51
     K24B02U  C2024 01 22.66445612 21 05.681+53 19 36.17         19.39GVEB118F52
     K24B02U  C2024 01 22.66510012 21 05.300+53 19 41.64         19.39GVEB118F52
     K24B02U 1C2024 01 22.99824 12 18 11.26 +54 05 57.0          20.0 VXEB118033
     K24B02U 1C2024 01 22.99864 12 18 11.07 +54 06 00.3          20.6 VXEB118033
     K24B02U 1C2024 01 22.99905 12 18 10.82 +54 06 03.5          20.5 VXEB118033
     K24B02U 1C2024 01 22.99962 12 18 10.49 +54 06 08.5          20.1 VXEB118033
     K24B02U KC2024 01 23.01671712 18 01.308+54 08 28.14         19.9 GVEB118J95
     K24B02U KC2024 01 23.02459512 17 56.772+54 09 36.68         19.9 GVEB118J95
     K24B02U KC2024 01 23.03289812 17 51.890+54 10 49.12         19.5 GVEB118J95
     K24B02U hC2024 01 23.19197512 16 13.47 +54 33 37.4          19.8 GVEB118L01
     K24B02U hC2024 01 23.19345712 16 12.62 +54 33 49.5          19.0 GVEB118L01
     K24B02U hC2024 01 23.19493812 16 11.70 +54 34 02.4          19.5 GVEB118L01
     K24B02U hC2024 01 23.19731512 16 10.18 +54 34 22.3          19.5 GVEB118L01
     K24B02U pC2024 01 23.19944512 16 08.86 +54 34 40.0          19.9 GVEB118L01
     K24B02U 1C2024 01 23.22652 12 15 52.86 +54 38 14.8          20.5 VXEB118033
     K24B02U 1C2024 01 23.22680 12 15 52.68 +54 38 17.3          20.6 VXEB118033
     K24B02U 1C2024 01 23.22708 12 15 52.49 +54 38 19.5          20.7 VXEB118033
     K24B02U 1C2024 01 23.22815 12 15 51.84 +54 38 28.6          20.5 VXEB118033
     K24B02U 1C2024 01 23.22843 12 15 51.66 +54 38 31.0          20.3 VXEB118033
     K24B02U 1C2024 01 23.22871 12 15 51.52 +54 38 33.2          20.2 VXEB118033
     K24B02U KC2024 01 23.93528312 08 59.82 +56 15 41.5          19.6 GXEB118958
     K24B02U KC2024 01 23.94493512 08 53.78 +56 17 02.7                XEB118958
     K24B02U KC2024 01 23.95451412 08 47.81 +56 18 23.9          19.3 GXEB118958
Observer details:
033 Karl Schwarzschild Observatory, Tautenburg.  Observers S. Melnikov, C.
    Hogner, F. Ludwig, M. Hartmann, B. Stecklum.  Measurer B. Stecklum.
    1.34-m f/3 Schmidt + CCD.
958 Observatoire de Dax.  Observers P. Dupouy, J. B. de Vanssay.  Measurer P.
    Dupouy.  0.43-m f/2.7 Reflector + CCD.
F51 Pan-STARRS 1, Haleakala.  Observers J. Herman, T. Lowe, P. Minguez, A.
    Schultz, I. Smith.  Measurers K. Chambers, T. de Boer, J. Fairlamb, H.
    Gao, M. Huber, C.-C. Lin, E. Magnier, Y. Ramanjooloo, R. Wainscoat, R.
    Weryk.  1.8-m Ritchey-Chretien + CCD.
F52 Pan-STARRS 2, Haleakala.  Observers J. Herman, T. Lowe, P. Minguez, A.
    Schultz, I. Smith.  Measurers K. Chambers, T. de Boer, J. Fairlamb, H.
    Gao, M. Huber, C.-C. Lin, E. Magnier, Y. Ramanjooloo, R. Wainscoat, R.
    Weryk.  1.8-m Ritchey-Chretien + CCD.
J95 Great Shefford.  Observer P. Birtwhistle.  0.41-m f/6.3 Schmidt-Cassegrain
    + CCD.
L01 Visnjan Observatory, Tican.  Observer K. Korlevic.  1.0-m f/2.9 reflector
    + CCD.
Orbital elements:
2024 BU2                                                 Earth MOID = 0.0366 AU
Epoch 2023 Sept. 13.0 TT = JDT 2460200.5                MPC                     
M 319.77079              (2000.0)            P               Q                  
n   1.44232476     Peri.  229.49239     +0.75192554     +0.64844514             
a   0.7758195      Node    89.73568     -0.56319133     +0.72555256             
e   0.3631951      Incl.    6.82619     -0.34267114     +0.23041784             
P   0.68           H   23.23          G   0.15           U   8                  
Residuals in seconds of arc
240122 F51  0.1-  0.1-    240122 033  0.0   0.2-    240123 033  0.1+  0.4-
240122 F51  0.2+  0.0     240123 J95  0.3-  0.1+    240123 033  0.1+  0.1-
240122 F51  0.1-  0.1+    240123 J95  0.3+  0.1-    240123 033  0.1-  0.3-
240122 F51  0.2-  0.3+    240123 J95  0.2+  0.0     240123 033  0.0   0.0
240122 F52  0.0   0.1-    240123 L01  0.4-  0.2-    240123 033  0.1-  0.1+
240122 F52  0.0   0.0     240123 L01  0.1+  0.4-    240123 033  0.2+  0.0
240122 033  0.3-  0.4+    240123 L01  0.1+  0.2+    240123 958  1.6-  0.0
240122 033  0.1+  0.2+    240123 L01  0.3-  0.4+    240123 958  1.1-  1.2-
240122 033  0.1-  0.2-    240123 L01  0.4-  0.5+    240123 958  0.1-  1.7-
Ephemeris:
2024 BU2                 a,e,i = 0.78, 0.36, 7                   q = 0.4940
Date    TT    R. A. (2000) Decl.     Delta      r    Elong.  Phase     V
2023 12 24    13 49 17.5 -03 04 12   0.1400  0.9339    65.3   106.8    22.8
...
2024 01 08    13 26 43.2 +19 02 53   0.1041  0.9963    94.1    79.9    21.1
...
2024 01 16    13 02 58.3 +36 48 17   0.09250 1.0207   111.2    64.0    20.4
...
2024 01 22    12 26 53.2 +51 43 01   0.09089 1.0350   121.9    53.8    20.1
2024 01 23    12 18 05.4 +54 06 18   0.09132 1.0370   123.2    52.6    20.0
2024 01 24    12 08 11.7 +56 24 54   0.09196 1.0390   124.4    51.4    20.0
...
2024 01 30    10 38 37.1 +67 27 10   0.09991 1.0486   127.3    48.3    20.1
...
2024 02 07    07 44 32.0 +70 44 21   0.1194  1.0560   123.0    51.5    20.6
...
2024 02 22    05 30 02.7 +61 16 10   0.1692  1.0533   107.9    63.3    21.7
A. U. Tomatic                (C) Copyright 2024 MPC           M.P.E.C. 2024-B118
    
    
More information about the Iaude
mailing list